When you browse on this site, cookies collect data to enhance your experience and personalize the content and advertising you see.
Visit our Privacy Policy to learn more. By continuing to use the site, you agree to this use of cookies and data.
  • In Latvia
  • List of Countries
  • For 7 days
  • Water Temperature
  • Weather Map
  • Weather Widgets
  • user-avatar
    Login

    Hourly Weather Shevchenko

    Today, 22 August, Thursday

    Time Temperature Precipitation Wind Pressure Humidity
    00:00 +29°C° 0 mm 6 mps 757 mmHg 45%
    01:00 +28°C° 0 mm 6 mps 757 mmHg 47%
    02:00 +27°C° 0 mm 5 mps 757 mmHg 50%
    03:00 +27°C° 0 mm 4 mps 757 mmHg 49%
    04:00 +26°C° 0 mm 4 mps 757 mmHg 53%
    05:00 +26°C° 0 mm 4 mps 757 mmHg 56%
    06:00 +25°C° 0 mm 4 mps 757 mmHg 59%
    07:00 +27°C° 0 mm 5 mps 757 mmHg 55%
    08:00 +29°C° 0 mm 5 mps 757 mmHg 50%
    09:00 +32°C° 0 mm 6 mps 758 mmHg 46%
    10:00 +33°C° 0 mm 6 mps 758 mmHg 41%
    11:00 +35°C° 0 mm 6 mps 757 mmHg 36%
    12:00 +38°C° 0 mm 6 mps 757 mmHg 30%
    13:00 +38°C° 0 mm 6 mps 757 mmHg 29%
    14:00 +39°C° 0 mm 6 mps 757 mmHg 27%
    15:00 +40°C° 0 mm 6 mps 757 mmHg 25%
    16:00 +39°C° 0 mm 5 mps 757 mmHg 26%
    17:00 +37°C° 0 mm 5 mps 757 mmHg 28%
    18:00 +36°C° 0 mm 5 mps 757 mmHg 29%
    19:00 +34°C° 0 mm 5 mps 757 mmHg 32%
    20:00 +32°C° 0 mm 4 mps 757 mmHg 35%
    21:00 +30°C° 0 mm 4 mps 758 mmHg 38%
    22:00 +29°C° 0 mm 4 mps 758 mmHg 41%
    23:00 +28°C° 0 mm 4 mps 758 mmHg 45%

    Tomorrow, 23 August, Friday

    Time Temperature Precipitation Wind Pressure Humidity
    00:00 +27°C° 0 mm 4 mps 758 mmHg 48%
    01:00 +27°C° 0 mm 5 mps 758 mmHg 49%
    02:00 +27°C° 0 mm 5 mps 758 mmHg 50%
    03:00 +27°C° 0 mm 5 mps 758 mmHg 51%
    04:00 +27°C° 0 mm 5 mps 758 mmHg 50%
    05:00 +26°C° 0 mm 5 mps 758 mmHg 50%
    06:00 +26°C° 0 mm 5 mps 758 mmHg 49%
    07:00 +28°C° 0 mm 6 mps 758 mmHg 45%
    08:00 +29°C° 0 mm 6 mps 758 mmHg 42%
    09:00 +32°C° 0 mm 7 mps 758 mmHg 38%
    10:00 +33°C° 0 mm 7 mps 758 mmHg 35%
    11:00 +35°C° 0 mm 7 mps 758 mmHg 33%
    12:00 +36°C° 0 mm 7 mps 758 mmHg 30%
    13:00 +36°C° 0 mm 7 mps 758 mmHg 30%
    14:00 +38°C° 0 mm 7 mps 758 mmHg 29%
    15:00 +38°C° 0 mm 7 mps 758 mmHg 29%
    16:00 +36°C° 0 mm 7 mps 758 mmHg 31%
    17:00 +36°C° 0 mm 6 mps 758 mmHg 32%
    18:00 +35°C° 0 mm 6 mps 758 mmHg 34%
    19:00 +34°C° 0 mm 6 mps 758 mmHg 37%
    20:00 +32°C° 0 mm 6 mps 758 mmHg 41%
    21:00 +30°C° 0 mm 6 mps 759 mmHg 44%
    22:00 +29°C° 0 mm 6 mps 759 mmHg 45%
    23:00 +28°C° 0 mm 6 mps 758 mmHg 47%

    Day after tomorrow, 24 August, Saturday

    Time Temperature Precipitation Wind Pressure Humidity
    00:00 +28°C° 0 mm 6 mps 758 mmHg 48%
    01:00 +27°C° 0 mm 6 mps 758 mmHg 51%
    02:00 +26°C° 0 mm 6 mps 759 mmHg 53%
    03:00 +26°C° 0 mm 6 mps 759 mmHg 56%
    04:00 +24°C° 0 mm 6 mps 759 mmHg 58%
    05:00 +24°C° 0 mm 6 mps 759 mmHg 61%
    06:00 +24°C° 0 mm 6 mps 759 mmHg 63%
    07:00 +26°C° 0 mm 6 mps 759 mmHg 59%
    08:00 +28°C° 0 mm 6 mps 759 mmHg 55%
    09:00 +30°C° 0 mm 7 mps 759 mmHg 50%
    10:00 +32°C° 0 mm 7 mps 759 mmHg 45%
    11:00 +34°C° 0 mm 7 mps 759 mmHg 40%
    12:00 +35°C° 0 mm 7 mps 759 mmHg 35%
    13:00 +36°C° 0 mm 7 mps 759 mmHg 34%
    14:00 +36°C° 0 mm 7 mps 759 mmHg 33%
    15:00 +38°C° 0 mm 7 mps 759 mmHg 32%
    16:00 +36°C° 0 mm 6 mps 759 mmHg 33%
    17:00 +36°C° 0 mm 6 mps 759 mmHg 33%
    18:00 +35°C° 0 mm 5 mps 758 mmHg 34%
    19:00 +34°C° 0 mm 5 mps 759 mmHg 37%
    20:00 +32°C° 0 mm 5 mps 759 mmHg 40%
    21:00 +30°C° 0 mm 5 mps 759 mmHg 43%
    22:00 +29°C° 0 mm 4 mps 759 mmHg 45%
    23:00 +28°C° 0 mm 4 mps 759 mmHg 46%

    25 August, Sunday

    Time Temperature Precipitation Wind Pressure Humidity
    00:00 +28°C° 0 mm 4 mps 759 mmHg 48%
    01:00 +27°C° 0 mm 4 mps 759 mmHg 51%
    02:00 +26°C° 0 mm 4 mps 759 mmHg 54%
    03:00 +25°C° 0 mm 4 mps 759 mmHg 58%
    04:00 +25°C° 0 mm 4 mps 759 mmHg 58%
    05:00 +25°C° 0 mm 5 mps 759 mmHg 59%
    06:00 +25°C° 0 mm 5 mps 759 mmHg 60%
    07:00 +26°C° 0 mm 6 mps 759 mmHg 54%
    08:00 +28°C° 0 mm 6 mps 759 mmHg 48%
    09:00 +29°C° 0 mm 7 mps 759 mmHg 42%
    10:00 +30°C° 0 mm 7 mps 759 mmHg 39%
    11:00 +33°C° 0 mm 7 mps 759 mmHg 36%
    12:00 +34°C° 0 mm 7 mps 759 mmHg 33%
    13:00 +34°C° 0 mm 7 mps 759 mmHg 32%
    14:00 +35°C° 0 mm 7 mps 759 mmHg 31%
    15:00 +35°C° 0 mm 7 mps 759 mmHg 30%
    16:00 +35°C° 0 mm 6 mps 759 mmHg 32%
    17:00 +34°C° 0 mm 6 mps 759 mmHg 33%
    18:00 +33°C° 0 mm 6 mps 758 mmHg 35%
    19:00 +30°C° 0 mm 5 mps 759 mmHg 38%
    20:00 +29°C° 0 mm 5 mps 759 mmHg 42%
    21:00 +27°C° 0 mm 4 mps 759 mmHg 46%
    22:00 +26°C° 0 mm 4 mps 760 mmHg 48%
    23:00 +25°C° 0 mm 4 mps 760 mmHg 50%

    26 August, Monday

    Time Temperature Precipitation Wind Pressure Humidity
    00:00 +24°C° 0 mm 3 mps 760 mmHg 52%
    01:00 +23°C° 0 mm 4 mps 760 mmHg 52%
    02:00 +23°C° 0 mm 4 mps 760 mmHg 52%
    03:00 +22°C° 0 mm 4 mps 760 mmHg 52%
    04:00 +22°C° 0 mm 4 mps 760 mmHg 52%
    05:00 +22°C° 0 mm 4 mps 760 mmHg 51%
    06:00 +21°C° 0 mm 5 mps 760 mmHg 51%
    07:00 +23°C° 0 mm 5 mps 760 mmHg 47%
    08:00 +26°C° 0 mm 6 mps 761 mmHg 43%
    09:00 +28°C° 0 mm 6 mps 761 mmHg 39%
    10:00 +29°C° 0 mm 6 mps 761 mmHg 36%
    11:00 +30°C° 0 mm 7 mps 761 mmHg 33%
    12:00 +33°C° 0 mm 7 mps 761 mmHg 30%
    13:00 +33°C° 0 mm 7 mps 761 mmHg 30%
    14:00 +33°C° 0 mm 7 mps 761 mmHg 30%
    15:00 +34°C° 0 mm 7 mps 761 mmHg 29%
    16:00 +33°C° 0 mm 7 mps 761 mmHg 31%
    17:00 +32°C° 0 mm 6 mps 762 mmHg 32%
    18:00 +32°C° 0 mm 6 mps 762 mmHg 33%
    19:00 +29°C° 0 mm 6 mps 762 mmHg 37%
    20:00 +28°C° 0 mm 6 mps 762 mmHg 40%
    21:00 +26°C° 0 mm 5 mps 763 mmHg 43%
    22:00 +25°C° 0 mm 5 mps 763 mmHg 43%
    23:00 +25°C° 0 mm 5 mps 763 mmHg 43%

    27 August, Tuesday

    Time Temperature Precipitation Wind Pressure Humidity
    00:00 +23°C° 0 mm 5 mps 763 mmHg 43%
    01:00 +22°C° 0 mm 5 mps 763 mmHg 43%
    02:00 +22°C° 0 mm 5 mps 763 mmHg 43%
    03:00 +21°C° 0 mm 6 mps 763 mmHg 42%
    04:00 +21°C° 0 mm 6 mps 763 mmHg 45%
    05:00 +20°C° 0 mm 5 mps 763 mmHg 47%
    06:00 +20°C° 0 mm 5 mps 763 mmHg 49%
    07:00 +22°C° 0 mm 6 mps 763 mmHg 45%
    08:00 +23°C° 0 mm 6 mps 764 mmHg 41%
    09:00 +26°C° 0 mm 6 mps 764 mmHg 37%
    10:00 +28°C° 0 mm 6 mps 764 mmHg 35%
    11:00 +29°C° 0 mm 6 mps 763 mmHg 32%
    12:00 +32°C° 0 mm 6 mps 763 mmHg 30%
    13:00 +32°C° 0 mm 6 mps 763 mmHg 28%
    14:00 +32°C° 0 mm 6 mps 763 mmHg 27%
    15:00 +32°C° 0 mm 6 mps 762 mmHg 25%
    16:00 +32°C° 0 mm 6 mps 762 mmHg 26%
    17:00 +30°C° 0 mm 6 mps 762 mmHg 26%
    18:00 +29°C° 0 mm 5 mps 762 mmHg 26%
    19:00 +27°C° 0 mm 5 mps 762 mmHg 27%
    20:00 +26°C° 0 mm 5 mps 763 mmHg 29%
    21:00 +23°C° 0 mm 4 mps 763 mmHg 30%
    22:00 +22°C° 0 mm 4 mps 763 mmHg 30%
    23:00 +21°C° 0 mm 4 mps 763 mmHg 30%
    Show more